Location: Hohe Wand Kleine Kanzel
(47.8330°N, 16.0170°E)
Time: 15:51:55
(UTC+02:00)

Courier 1B Rocket - Pass Details

Date: 05 August 2021
Orbit: 920 x 1202 km, 28.3° (Epoch: 27 September)

Event Time Altitude Azimuth Distance (km) Brightness Sun altitude
Rises 02:59:18 0° 235° (SW) 3,828 - -20.1°
Reaches altitude 10° 03:03:44 10° 210° (SSW) 2,804 - -19.7°
Maximum altitude 03:06:44 13° 183° (S) 2,524 - -19.5°
Drops below altitude 10° 03:09:39 10° 157° (SSE) 2,719 - -19.2°
Exits shadow 03:09:46 10° 156° (SSE) 2,735 7.0 -19.2°
Sets 03:13:49 0° 131° (SE) 3,614 7.9 -18.8°
